Flag Weather past 2 weeks in Baltimore, Maryland, U.S.A.

Now
51 °F

Scattered clouds.


Feels Like: 51 °F
Forecast: 42 / 57 °F
Wind: 3 mph from Northwest

Location: Baltimore-Washington International Airport

Current Time: Oct 30, 2014 at 8:08:33 PM

Latest Report: Oct 30, 2014 at 6:54 PM


Visibility: 10 mi

Pressure: 30.03 "Hg

Humidity: 59%

Dew point: 37 °F

Location of BaltimoreLocation

Historic Weather in Baltimore — Graph

°F

Baltimore temperature yesterday

Maximum temperature yesterday: 69 °F (at 12:54 AM)
Minimum temperature yesterday: 46 °F (at 11:54 PM)
Average temperature yesterday: 59 °F

Past Weeks' High & Low Weather Summary

 TemperatureHumidityPressure
High79 °F (Oct 28, 2:54 PM)100% (Oct 15, 10:57 PM)30.13 "Hg (Oct 15, 10:57 PM)
Low36 °F (Oct 20, 5:54 AM)23% (Oct 27, 2:54 PM)29.62 "Hg (Oct 18, 4:54 AM)
Average57 °F67%29.88 "Hg
* Reported Oct 15 6:54 PM — Oct 30 6:54 PM, Baltimore, Weather by CustomWeather, © 2014

Note: Actual official high and low records may vary slightly from our data, if they occured in-between our weather recording intervals... More about our weather records

Advertising

Baltimore weather history for previous 24 hours

 ConditionsComfort  
Time TempWeatherWind HumidityBarometerVisibility
6:54 PM
Oct 30
51 °FScattered clouds.3 mph59%30.03 "Hg10 mi
5:54 PM53 °FScattered clouds.6 mph52%30.03 "Hg10 mi
4:54 PM56 °FPartly sunny.5 mph51%30.01 "Hg10 mi
3:54 PM56 °FBroken clouds.9 mph53%30.02 "Hg10 mi
2:54 PM57 °FBroken clouds.10 mph47%30.01 "Hg10 mi
1:54 PM57 °FBroken clouds.9 mph49%30.02 "Hg10 mi
12:54 PM56 °FScattered clouds.6 mph51%30.04 "Hg10 mi
11:54 AM57 °FScattered clouds.10 mph51%30.05 "Hg10 mi
10:54 AM55 °FScattered clouds.10 mph57%30.06 "Hg10 mi
9:54 AM52 °FScattered clouds.7 mph64%30.06 "Hg10 mi
8:54 AM48 °FScattered clouds.7 mph77%30.05 "Hg10 mi
7:54 AM44 °FPartly cloudy.6 mph89%30.03 "Hg10 mi
6:54 AM43 °FPassing clouds.5 mph89%30.02 "Hg10 mi
5:54 AM44 °FPassing clouds.No wind96%30.00 "Hg10 mi
4:54 AM45 °FClear.No wind97%29.99 "Hg10 mi
3:54 AM45 °FClear.No wind97%29.98 "Hg10 mi
2:54 AM43 °FClear.3 mph100%29.98 "Hg9 mi
1:54 AM43 °FClear.No wind100%29.98 "Hg7 mi
12:54 AM45 °FFog.3 mph97%29.98 "Hg7 mi
11:54 PM
Oct 29
46 °FFog.No wind100%29.98 "Hg7 mi
10:54 PM47 °FPassing clouds.No wind97%29.98 "Hg6 mi
9:54 PM50 °FFog.No wind96%29.98 "Hg6 mi
8:54 PM51 °FPartly cloudy.No wind92%29.97 "Hg9 mi
Weather by CustomWeather, © 2014

See weather overviewHow to use our weather pages